SV1BYK-4 Weather Reports


Display with metric or nautical units.
time (UTC)temp
F
wind
direction
speed
MPH
gust
MPH
rain 1hr
in
rain 24hr
in
rain mn
in
humidity
%
barometer
mb
20260510234540 67 270 0.0 2.0 0.00 0.00 0.00 62 1008.0
20260510233640 67 270 0.0 2.0 0.00 0.00 0.00 61 1008.1
20260510232740 67 270 0.0 2.0 0.00 0.00 0.00 61 1008.2
20260510231840 67 270 1.0 2.0 0.00 0.00 0.00 61 1008.3
20260510230940 67 270 0.0 2.0 0.00 0.00 0.00 63 1008.5
20260510230040 67 0 0.0 0.0 0.00 0.00 0.00 63 1008.6
20260510225140 67 0 0.0 0.0 0.00 0.00 0.00 64 1008.6
20260510223340 67 0 0.0 0.0 0.00 0.00 0.00 63 1008.8
20260510221540 67 0 0.0 0.0 0.00 0.00 0.00 63 1008.9
20260510220640 67 0 0.0 0.0 0.00 0.00 0.00 62 1009.0
20260510214840 68 0 0.0 0.0 0.00 0.00 0.00 62 1009.1
20260510213040 68 270 2.0 2.0 0.00 0.00 0.00 60 1009.2
20260510212140 68 270 1.0 2.0 0.00 0.00 0.00 61 1009.2
20260510211240 68 270 1.0 2.0 0.00 0.00 0.00 61 1009.3
20260510210340 68 270 0.0 2.0 0.00 0.00 0.00 61 1009.3
20260510204540 68 248 1.0 2.0 0.00 0.00 0.00 62 1009.4
20260510203640 68 248 1.0 2.0 0.00 0.00 0.00 62 1009.4
20260510202740 69 248 2.0 2.0 0.00 0.00 0.00 61 1009.5
20260510201840 69 248 0.0 2.0 0.00 0.00 0.00 61 1009.5
20260510200940 69 259 0.0 2.0 0.00 0.00 0.00 61 1009.7
20260510200040 69 267 0.0 4.0 0.00 0.00 0.00 60 1009.8
20260510195140 69 270 0.0 2.0 0.00 0.00 0.00 60 1009.9
20260510194240 69 264 1.0 2.0 0.00 0.00 0.00 60 1009.9
20260510193340 69 248 2.0 2.0 0.00 0.00 0.00 60 1009.9
20260510192440 69 234 1.0 2.0 0.00 0.00 0.00 61 1009.8
20260510191539 69 249 0.0 4.0 0.00 0.00 0.00 60 1009.9
20260510190640 69 261 3.0 4.0 0.00 0.00 0.00 60 1009.9
20260510185739 69 269 2.0 4.0 0.00 0.00 0.00 60 1009.8
20260510183940 69 264 4.0 7.0 0.00 0.00 0.00 59 1009.7
20260510183040 69 256 1.0 6.0 0.00 0.00 0.00 57 1009.5
20260510180340 69 273 4.0 6.0 0.00 0.00 0.00 59 1009.5
20260510174540 69 255 2.0 4.0 0.00 0.00 0.00 60 1009.5
20260510173639 69 267 3.0 4.0 0.00 0.00 0.00 60 1009.5
20260510172740 70 253 2.0 6.0 0.00 0.00 0.00 60 1009.5
20260510171839 70 159 1.0 4.0 0.00 0.00 0.00 59 1009.5
20260510170940 70 268 1.0 4.0 0.00 0.00 0.00 59 1009.5
20260510170040 71 268 2.0 4.0 0.00 0.00 0.00 58 1009.3
20260510165140 71 268 2.0 6.0 0.00 0.00 0.00 57 1009.4
20260510163339 71 260 1.0 6.0 0.00 0.00 0.00 57 1009.3
20260510162440 71 246 4.0 8.0 0.00 0.00 0.00 57 1009.3
20260510160639 72 241 2.0 4.0 0.00 0.00 0.00 56 1009.5
20260510155739 71 207 2.0 6.0 0.00 0.00 0.00 56 1009.8
20260510153940 71 256 3.0 7.0 0.00 0.00 0.00 57 1010.0
20260510153040 72 174 2.0 6.0 0.00 0.00 0.00 57 1010.0
20260510152139 72 137 2.0 4.0 0.00 0.00 0.00 57 1009.9
20260510151239 72 116 1.0 4.0 0.00 0.00 0.00 58 1009.9
20260510150339 73 117 1.0 6.0 0.00 0.00 0.00 56 1009.9
20260510145439 72 158 1.0 4.0 0.00 0.00 0.00 58 1009.8
20260510144540 72 108 2.0 6.0 0.00 0.00 0.00 59 1010.0
20260510143639 72 216 2.0 11.0 0.00 0.00 0.00 59 1010.2
20260510142739 71 189 7.0 8.0 0.00 0.00 0.00 59 1010.3
20260510140939 72 177 2.0 9.0 0.00 0.00 0.00 59 1009.9
20260510140039 72 120 3.0 8.0 0.00 0.00 0.00 59 1009.9
20260510135139 72 168 3.0 9.0 0.00 0.00 0.00 58 1009.8
20260510132441 72 249 4.0 11.0 0.00 0.00 0.00 60 1010.0
20260510131540 73 244 4.0 8.0 0.00 0.00 0.00 58 1010.1
20260510130639 73 152 2.0 6.0 0.00 0.00 0.00 58 1010.0
20260510125739 72 174 2.0 7.0 0.00 0.00 0.00 58 1010.4
20260510123039 72 191 3.0 11.0 0.00 0.00 0.00 63 1011.1
20260510122139 73 149 4.0 8.0 0.00 0.00 0.00 61 1011.2
20260510121240 75 199 4.0 9.0 0.00 0.00 0.00 58 1011.2
20260510115439 75 182 3.0 11.0 0.00 0.00 0.00 56 1011.2
20260510114539 76 106 4.0 11.0 0.00 0.00 0.00 55 1011.3
20260510113639 76 132 6.0 11.0 0.00 0.00 0.00 51 1011.3
20260510112740 76 117 3.0 11.0 0.00 0.00 0.00 50 1011.2
20260510111840 76 208 4.0 11.0 0.00 0.00 0.00 51 1011.0
20260510110940 77 230 4.0 11.0 0.00 0.00 0.00 50 1011.1
20260510102439 75 145 4.0 8.0 0.00 0.00 0.00 54 1011.4
20260510101540 76 121 1.0 6.0 0.00 0.00 0.00 55 1011.4
20260510100640 77 162 2.0 9.0 0.00 0.00 0.00 52 1011.5
20260510095740 78 213 2.0 6.0 0.00 0.00 0.00 51 1011.7
20260510094839 76 144 2.0 8.0 0.00 0.00 0.00 53 1011.8
20260510093939 77 179 2.0 8.0 0.00 0.00 0.00 52 1012.0
20260510093040 75 243 3.0 8.0 0.00 0.00 0.00 54 1011.8
20260510092139 75 166 4.0 9.0 0.00 0.00 0.00 55 1011.8
20260510091239 76 111 4.0 9.0 0.00 0.00 0.00 52 1011.7
20260510090339 75 142 3.0 7.0 0.00 0.00 0.00 53 1011.9
20260510085439 76 150 2.0 7.0 0.00 0.00 0.00 52 1011.9
20260510084539 75 99 2.0 7.0 0.00 0.00 0.00 55 1011.9
20260510083639 75 141 2.0 7.0 0.00 0.00 0.00 54 1011.9
20260510082739 76 140 2.0 4.0 0.00 0.00 0.00 53 1011.8
20260510081840 74 119 2.0 7.0 0.00 0.00 0.00 54 1011.9
20260510080039 74 119 4.0 7.0 0.00 0.00 0.00 54 1011.8
20260510075140 74 112 3.0 6.0 0.00 0.00 0.00 54 1011.9
20260510074240 74 184 2.0 4.0 0.00 0.00 0.00 54 1011.8
20260510071539 73 211 1.0 4.0 0.00 0.00 0.00 56 1011.9
20260510070639 73 185 1.0 4.0 0.00 0.00 0.00 56 1011.8
20260510065739 72 220 2.0 4.0 0.00 0.00 0.00 58 1011.6
20260510063939 71 204 2.0 6.0 0.00 0.00 0.00 60 1011.6
20260510063039 72 162 2.0 4.0 0.00 0.00 0.00 62 1011.6
20260510062140 70 254 2.0 4.0 0.00 0.00 0.00 65 1011.8
20260510060339 70 139 2.0 4.0 0.00 0.00 0.00 62 1012.1
20260510054539 70 262 2.0 2.0 0.00 0.00 0.00 62 1011.9
20260510053639 69 270 1.0 4.0 0.00 0.00 0.00 63 1011.9
20260510052739 69 270 1.0 2.0 0.00 0.00 0.00 63 1011.8
20260510050939 66 270 1.0 2.0 0.00 0.00 0.00 67 1011.7
20260510050039 67 270 0.0 2.0 0.00 0.00 0.00 65 1011.5
20260510044239 65 270 0.0 2.0 0.00 0.00 0.00 67 1011.4
20260510042439 64 270 0.0 2.0 0.00 0.00 0.00 68 1011.3
20260510041539 64 270 0.0 2.0 0.00 0.00 0.00 68 1011.4
20260510040639 64 270 0.0 2.0 0.00 0.00 0.00 68 1011.2
20260510035739 64 270 0.0 2.0 0.00 0.00 0.00 68 1010.9
20260510034839 64 270 0.0 6.0 0.00 0.00 0.00 68 1010.8
20260510032139 63 270 0.0 2.0 0.00 0.00 0.00 68 1010.6
20260510031239 63 270 0.0 2.0 0.00 0.00 0.00 68 1010.6
20260510030339 63 270 0.0 2.0 0.00 0.00 0.00 68 1010.7
20260510025439 63 270 0.0 2.0 0.00 0.00 0.00 68 1010.6
20260510024539 63 270 0.0 2.0 0.00 0.00 0.00 68 1010.5
20260510023639 63 270 0.0 2.0 0.00 0.00 0.00 67 1010.4
20260510021839 64 270 0.0 2.0 0.00 0.00 0.00 66 1010.4
20260510020939 63 270 0.0 2.0 0.00 0.00 0.00 66 1010.4
20260510020039 64 270 0.0 2.0 0.00 0.00 0.00 66 1010.3
20260510015139 64 270 0.0 2.0 0.00 0.00 0.00 66 1010.4
20260510014239 64 270 0.0 2.0 0.00 0.00 0.00 66 1010.4
20260510013339 64 270 1.0 2.0 0.00 0.00 0.00 66 1010.4
20260510012439 64 270 1.0 2.0 0.00 0.00 0.00 65 1010.3
20260510011539 64 270 0.0 2.0 0.00 0.00 0.00 65 1010.3
20260510003939 65 270 0.0 2.0 0.00 0.00 0.00 64 1010.2
20260510003039 64 0 0.0 0.0 0.00 0.00 0.00 64 1010.3
20260510002139 64 270 0.0 2.0 0.00 0.00 0.00 64 1010.3
20260510001239 64 0 0.0 0.0 0.00 0.00 0.00 64 1010.3